Location: Melbourne
(37.8170°S, 144.9670°E)
Time: 18:37:19
(UTC+10:00)

CZ-3 R/B - Visible Passes

Search period start: 24 April 2018 00:00
Search period end: 04 May 2018 00:00
Orbit: 281 x 10386 km, 28.4° (Epoch: 23 April)

Date Brightness Start Highest point End Pass type
(mag) Time Alt. Az. Time Alt. Az. Time Alt. Az.
24 Apr 4.1 03:29:14 42° NNW 03:33:42 46° N 03:43:07 10° ENE visible
24 Apr 5.5 23:12:31 10° NNW 00:30:33 15° ENE 00:32:53 10° ENE visible
25 Apr 3.8 04:00:49 38° NW 04:07:54 49° N 04:16:03 10° ENE visible
25 Apr 6.8 20:29:52 10° NE 20:33:32 10° NE 20:37:04 10° NE visible
25 Apr 5.2 23:48:03 10° NNW 01:02:06 24° ENE 01:07:18 10° E visible
26 Apr 3.4 04:32:21 31° NW 04:41:48 51° N 04:48:50 10° ENE visible
26 Apr 6.7 20:32:51 10° NNE 21:13:26 16° NE 21:14:56 16° NE visible
27 Apr 4.9 00:24:53 10° NW 01:33:36 33° NE 01:41:08 10° E visible
27 Apr 3.2 05:03:51 23° WNW 05:15:24 50° N 05:21:30 10° ENE visible
27 Apr 6.7 20:58:41 10° N 21:45:50 21° NNE 21:45:50 21° NNE visible
28 Apr 4.7 01:02:51 10° NW 02:05:03 43° NE 02:14:35 10° E visible
28 Apr 2.9 05:35:18 16° WNW 05:48:44 47° NNW 05:54:03 10° ENE visible
28 Apr 6.6 21:29:00 10° N 22:16:45 26° NNE 22:16:45 26° NNE visible
29 Apr 4.4 01:41:52 10° NW 02:36:29 51° NNE 02:47:44 10° E visible
29 Apr 2.8 06:07:30 10° W 06:21:50 41° NNW 06:26:29 10° NE visible
29 Apr 5.8 22:01:36 10° NNW 23:37:40 - E 22:47:41 30° N visible
30 Apr 4.2 03:07:53 54° N 03:09:37 55° N 03:20:42 10° E visible
30 Apr 5.6 22:35:44 10° NNW 00:09:01 14° E 00:10:34 10° E visible
01 May 3.9 03:39:15 51° NW 03:43:55 57° N 03:53:31 10° ENE visible
01 May 6.8 19:32:36 10° NNE 20:08:29 14° NE 20:19:27 14° NE visible
01 May 5.3 23:11:11 10° NNW 00:40:22 23° ENE 00:44:38 10° E visible
02 May 3.6 04:10:35 43° NW 04:17:52 58° N 04:26:12 10° ENE visible
02 May 6.7 19:54:35 10° N 20:46:41 21° NE 20:50:27 21° NE visible
02 May 5.0 23:47:51 10° NW 01:11:40 32° ENE 01:18:14 10° E visible
03 May 3.4 04:41:53 33° WNW 04:51:30 56° N 04:58:46 10° ENE visible
03 May 6.6 20:23:00 10° N 21:21:27 27° NE 21:21:27 27° NE visible
